STARLINK-30182, 57412

Orbit data source: Space-Track

STARLINK-30182, 57412 is a payload satellite owned by SpaceX/Seattle (US) in LEO that was launched on Thu, 20 Jul 2023 UTC via an FALCON 9 launch vehicle from the Air Force Western Test Range (AFWTR). Payload-class satellites include a variety of spacecraft equipped with specific instruments for various scientific and technological missions. These include communications satellites like Starlink; space stations such as the ISS; scientific satellites like the Hubble; Earth observation satellites from companies like Planet Labs, Umbra, and HawkEye 360; GPS; miniature CubeSats for education and research; and military/defense satellites.

Loading next visibility...
Identifier
57412, 2023-102J
Orbit
LEO
Country
Flag of USUS
Related business
Manufacturer
SpaceX/Seattle
Mission
Operational Commercial Communications
Bus & Motor
STARLINK V2M, Unknown motor
Mass
730 kg wet, ~700 kg dry
Launch date (UTC)
2023-07-20 (3 years ago)
Launch vehicle
FALCON 9
Launch site
Air Force Western Test Range (AFWTR)
Object type
Payload
Rocket body
Debris
Shape & HBR
Box + 2 Pan, 17.7 m
Radar Cross Section
33.884 m², Large (>1 m²)

Expand to show TLE details & history
Last TLE update: 2 days ago

TLE from 2 days ago
0 STARLINK-30182
1 57412U 23102J   26171.04290977  .00019085  00000-0  70311-3 0  9990
2 57412  43.0060  30.5339 0001749 245.0560 115.0110 15.27493432161894
Epoch: 2026-06-20T01:01Z
TLE epoch observation values (Epoch: 2026-06-20T01:01:47.404Z)
Latitude
-0.00001°
Longitude
106.82317°
Altitude
483.592 km
Speed
7.625 km/s
True Right ascension
02h 02m 08s
True Declination
0° 00' 00"
Sunlit
Object was in daylight at epoch
Visualization orbit readout
Latitude
Unknown
Longitude
Unknown
Altitude
Unknown
Speed
Unknown
Apparent Right ascension
Unknown
Apparent Declination
Unknown
Sunlit
N/A
Visualization observer readout
Local Sidereal Time
21:24:50
Azimuth
Unknown
Elevation
Unknown
Doppler factor
Unknown
Orbital elements
Apogee altitude
486.453 km
Perigee altitude
484.052 km
Semi-major axis
6,863.389 km
Eccentricity
0.00017
Inclination
43.006°
RAAN
30.5339°
Arg. of periapsis
245.056°
True anomaly
115.02916°
Mean anomaly
115.011°
Eccentric anomaly
115.02008°
Mean motion
3.81711 °/min
Orbital period
94.31 mins
BSTAR
0.00070311
Loading maneuver chart data...
Computing Atmospheric mass density...
Loading historical data...
Loading historical data...
Loading historical data...
Loading historical data...
Loading historical data...
Loading historical data...
Loading historical data...

Documentation

Showing up to 5 results
|